Time,TemperatureF,DewpointF,PressureIn,WindDirection,WindDirectionDegrees,WindSpeedMPH,WindSpeedGustMPH,Humidity,HourlyPrecipIn,Conditions,Clouds,dailyrainin,SoftwareType,DateUTC
2013-06-05 00:07:00,58.0,44.7,30.18,NE,45,0.0,0.0,61,0.00,,,0.00,WUHU216HW,2013-06-05 04:07:00,
2013-06-05 00:08:00,58.0,44.7,30.18,NE,45,0.2,0.2,61,0.00,,,0.00,WUHU216HW,2013-06-05 04:08:00,
2013-06-05 00:17:00,57.6,44.3,30.18,NE,45,0.0,0.2,61,0.00,,,0.00,WUHU216HW,2013-06-05 04:17:00,
2013-06-05 00:18:00,57.6,44.3,30.18,NE,45,0.0,0.0,61,0.00,,,0.00,WUHU216HW,2013-06-05 04:18:00,
2013-06-05 00:27:00,57.1,44.6,30.18,NNE,23,0.0,0.2,63,0.00,,,0.00,WUHU216HW,2013-06-05 04:27:00,
2013-06-05 00:37:00,56.2,44.1,30.17,NNE,23,0.0,0.0,64,0.00,,,0.00,WUHU216HW,2013-06-05 04:37:00,
2013-06-05 00:47:00,55.6,44.4,30.17,NNE,23,0.0,0.0,66,0.00,,,0.00,WUHU216HW,2013-06-05 04:47:00,
2013-06-05 00:57:00,54.7,43.9,30.17,East,90,0.0,0.7,67,0.00,,,0.00,WUHU216HW,2013-06-05 04:57:00,
2013-06-05 01:07:00,54.2,43.8,30.17,SE,135,0.0,0.9,68,0.00,,,0.00,WUHU216HW,2013-06-05 05:07:00,
2013-06-05 01:17:00,53.5,43.6,30.17,SE,135,0.2,0.2,69,0.00,,,0.00,WUHU216HW,2013-06-05 05:17:00,
2013-06-05 01:27:00,53.1,43.7,30.17,ENE,68,0.0,0.2,70,0.00,,,0.00,WUHU216HW,2013-06-05 05:27:00,
2013-06-05 01:37:00,52.7,43.7,30.17,NW,315,0.0,0.2,71,0.00,,,0.00,WUHU216HW,2013-06-05 05:37:00,
2013-06-05 01:47:00,52.0,43.3,30.17,NNW,338,0.0,0.4,72,0.00,,,0.00,WUHU216HW,2013-06-05 05:47:00,
2013-06-05 01:57:00,51.5,42.9,30.17,NNW,338,0.2,0.2,72,0.00,,,0.00,WUHU216HW,2013-06-05 05:57:00,
2013-06-05 02:07:00,51.3,42.7,30.17,NNW,338,0.2,0.2,72,0.00,,,0.00,WUHU216HW,2013-06-05 06:07:00,
2013-06-05 02:17:00,51.1,42.8,30.17,NE,45,0.0,0.2,73,0.00,,,0.00,WUHU216HW,2013-06-05 06:17:00,
2013-06-05 02:27:00,50.9,42.9,30.17,North,0,0.0,0.4,74,0.00,,,0.00,WUHU216HW,2013-06-05 06:27:00,
2013-06-05 02:37:00,50.4,42.4,30.17,North,0,1.1,1.1,74,0.00,,,0.00,WUHU216HW,2013-06-05 06:37:00,
2013-06-05 02:47:00,50.0,42.4,30.17,NNW,338,0.0,0.7,75,0.00,,,0.00,WUHU216HW,2013-06-05 06:47:00,
2013-06-05 02:58:00,50.0,42.8,30.17,NNW,338,0.0,0.4,76,0.00,,,0.00,WUHU216HW,2013-06-05 06:58:00,
2013-06-05 03:08:00,49.9,42.6,30.17,NNW,338,0.0,0.2,76,0.00,,,0.00,WUHU216HW,2013-06-05 07:08:00,
2013-06-05 03:18:00,50.0,42.4,30.17,North,0,0.2,0.7,75,0.00,,,0.00,WUHU216HW,2013-06-05 07:18:00,
2013-06-05 03:28:00,50.9,42.3,30.17,North,0,0.0,1.1,72,0.00,,,0.00,WUHU216HW,2013-06-05 07:28:00,
2013-06-05 03:38:00,51.3,42.3,30.17,South,180,0.4,1.1,71,0.00,,,0.00,WUHU216HW,2013-06-05 07:38:00,
2013-06-05 03:48:00,51.8,42.5,30.18,SSE,158,0.0,0.9,70,0.00,,,0.00,WUHU216HW,2013-06-05 07:48:00,
2013-06-05 03:58:00,51.8,42.9,30.18,North,0,0.4,0.7,71,0.00,,,0.00,WUHU216HW,2013-06-05 07:58:00,
2013-06-05 04:08:00,51.1,42.1,30.17,SSE,158,0.4,1.3,71,0.00,,,0.00,WUHU216HW,2013-06-05 08:08:00,
2013-06-05 04:18:00,51.1,42.1,30.17,South,180,0.9,1.8,71,0.00,,,0.00,WUHU216HW,2013-06-05 08:18:00,
2013-06-05 04:28:00,51.3,41.9,30.18,SSE,158,0.2,1.3,70,0.00,,,0.00,WUHU216HW,2013-06-05 08:28:00,
2013-06-05 04:38:00,51.5,42.1,30.18,South,180,0.2,1.6,70,0.00,,,0.00,WUHU216HW,2013-06-05 08:38:00,
2013-06-05 04:48:00,51.1,41.8,30.19,South,180,0.0,0.0,70,0.00,,,0.00,WUHU216HW,2013-06-05 08:48:00,
2013-06-05 04:58:00,50.8,41.4,30.19,South,180,0.0,0.0,70,0.00,,,0.00,WUHU216HW,2013-06-05 08:58:00,
2013-06-05 05:08:00,50.4,41.4,30.19,South,180,0.0,0.4,71,0.00,,,0.00,WUHU216HW,2013-06-05 09:08:00,
2013-06-05 05:18:00,49.7,41.1,30.20,South,180,0.0,0.0,72,0.00,,,0.00,WUHU216HW,2013-06-05 09:18:00,
2013-06-05 05:28:00,49.3,40.7,30.20,South,180,0.0,0.4,72,0.00,,,0.00,WUHU216HW,2013-06-05 09:28:00,
2013-06-05 05:38:00,49.3,41.0,30.20,South,180,0.0,0.4,73,0.00,,,0.00,WUHU216HW,2013-06-05 09:38:00,
2013-06-05 05:48:00,49.1,40.8,30.21,South,180,0.0,0.0,73,0.00,,,0.00,WUHU216HW,2013-06-05 09:48:00,
2013-06-05 05:58:00,49.0,41.0,30.22,South,180,0.0,0.0,74,0.00,,,0.00,WUHU216HW,2013-06-05 09:58:00,
2013-06-05 06:08:00,48.8,40.8,30.21,South,180,0.0,0.2,74,0.00,,,0.00,WUHU216HW,2013-06-05 10:08:00,
2013-06-05 06:18:00,48.8,41.1,30.22,South,180,0.0,0.0,75,0.00,,,0.00,WUHU216HW,2013-06-05 10:18:00,
2013-06-05 06:28:00,49.0,41.7,30.23,South,180,0.0,0.0,76,0.00,,,0.00,WUHU216HW,2013-06-05 10:28:00,
2013-06-05 06:38:00,49.3,42.4,30.23,South,180,0.0,0.0,77,0.00,,,0.00,WUHU216HW,2013-06-05 10:38:00,
2013-06-05 06:48:00,49.7,42.8,30.24,South,180,0.0,0.0,77,0.00,,,0.00,WUHU216HW,2013-06-05 10:48:00,
2013-06-05 06:58:00,50.4,43.7,30.24,South,180,0.0,0.0,78,0.00,,,0.00,WUHU216HW,2013-06-05 10:58:00,
2013-06-05 07:08:00,51.1,44.5,30.24,South,180,0.0,0.0,78,0.00,,,0.00,WUHU216HW,2013-06-05 11:08:00,
2013-06-05 07:18:00,52.0,45.4,30.24,South,180,0.0,0.0,78,0.00,,,0.00,WUHU216HW,2013-06-05 11:18:00,
2013-06-05 07:28:00,53.3,46.3,30.25,South,180,0.0,0.0,77,0.00,,,0.00,WUHU216HW,2013-06-05 11:28:00,
2013-06-05 07:38:00,55.1,47.6,30.25,South,180,0.0,0.4,76,0.00,,,0.00,WUHU216HW,2013-06-05 11:38:00,
2013-06-05 07:48:00,56.7,48.1,30.25,ENE,68,0.4,1.3,73,0.00,,,0.00,WUHU216HW,2013-06-05 11:48:00,
2013-06-05 07:58:00,58.1,48.0,30.25,NE,45,0.7,2.0,69,0.00,,,0.00,WUHU216HW,2013-06-05 11:58:00,
2013-06-05 08:08:00,59.0,48.1,30.25,North,0,0.0,1.8,67,0.00,,,0.00,WUHU216HW,2013-06-05 12:08:00,
2013-06-05 08:18:00,59.4,47.6,30.25,NNE,23,0.2,1.1,65,0.00,,,0.00,WUHU216HW,2013-06-05 12:18:00,
2013-06-05 08:28:00,60.7,49.3,30.25,ENE,68,2.0,2.0,66,0.00,,,0.00,WUHU216HW,2013-06-05 12:28:00,
2013-06-05 08:38:00,62.1,49.8,30.25,North,0,0.4,3.1,64,0.00,,,0.00,WUHU216HW,2013-06-05 12:38:00,
2013-06-05 08:48:00,62.8,50.1,30.25,SW,225,1.1,2.5,63,0.00,,,0.00,WUHU216HW,2013-06-05 12:48:00,
2013-06-05 08:58:00,63.5,49.9,30.26,ENE,68,0.7,2.9,61,0.00,,,0.00,WUHU216HW,2013-06-05 12:58:00,
2013-06-05 09:08:00,64.3,50.5,30.26,ENE,68,0.0,2.5,61,0.00,,,0.00,WUHU216HW,2013-06-05 13:08:00,
2013-06-05 09:18:00,65.2,50.9,30.26,NNE,23,1.6,1.8,60,0.00,,,0.00,WUHU216HW,2013-06-05 13:18:00,
2013-06-05 09:28:00,65.3,51.1,30.26,SSE,158,0.0,3.1,60,0.00,,,0.00,WUHU216HW,2013-06-05 13:28:00,
2013-06-05 09:38:00,67.3,52.0,30.26,West,270,3.4,3.4,58,0.00,,,0.00,WUHU216HW,2013-06-05 13:38:00,
2013-06-05 09:48:00,68.8,52.9,30.26,NNW,338,0.2,2.0,57,0.00,,,0.00,WUHU216HW,2013-06-05 13:48:00,
2013-06-05 09:58:00,69.5,53.6,30.26,SSE,158,0.4,2.5,57,0.00,,,0.00,WUHU216HW,2013-06-05 13:58:00,
2013-06-05 10:08:00,71.3,54.7,30.26,SSE,158,3.1,3.1,56,0.00,,,0.00,WUHU216HW,2013-06-05 14:08:00,
2013-06-05 10:18:00,72.9,54.2,30.25,SSE,158,2.5,4.7,52,0.00,,,0.00,WUHU216HW,2013-06-05 14:18:00,
2013-06-05 10:28:00,73.8,55.5,30.25,North,0,0.4,2.7,53,0.00,,,0.00,WUHU216HW,2013-06-05 14:28:00,
2013-06-05 10:38:00,74.2,55.9,30.25,SSE,158,1.8,3.4,53,0.00,,,0.00,WUHU216HW,2013-06-05 14:38:00,
2013-06-05 10:48:00,73.8,54.6,30.25,SE,135,2.5,2.5,51,0.00,,,0.00,WUHU216HW,2013-06-05 14:48:00,
2013-06-05 10:58:00,74.9,56.1,30.25,SSE,158,0.7,2.2,52,0.00,,,0.00,WUHU216HW,2013-06-05 14:58:00,
2013-06-05 11:08:00,74.9,55.1,30.24,SSE,158,0.9,2.5,50,0.00,,,0.00,WUHU216HW,2013-06-05 15:08:00,
2013-06-05 11:18:00,76.7,57.2,30.24,SSE,158,1.3,3.1,51,0.00,,,0.00,WUHU216HW,2013-06-05 15:18:00,
2013-06-05 11:28:00,78.7,57.9,30.24,NNE,23,2.9,2.9,49,0.00,,,0.00,WUHU216HW,2013-06-05 15:28:00,
2013-06-05 11:38:00,78.8,56.9,30.24,South,180,1.1,2.9,47,0.00,,,0.00,WUHU216HW,2013-06-05 15:38:00,
2013-06-05 11:48:00,76.7,53.6,30.23,SSE,158,0.4,1.8,45,0.00,,,0.00,WUHU216HW,2013-06-05 15:48:00,
2013-06-05 11:58:00,77.4,55.5,30.23,SE,135,1.8,1.8,47,0.00,,,0.00,WUHU216HW,2013-06-05 15:58:00,
2013-06-05 12:08:00,78.5,55.3,30.23,SSE,158,0.4,4.3,45,0.00,,,0.00,WUHU216HW,2013-06-05 16:08:00,
2013-06-05 12:13:00,78.5,54.7,30.23,SSE,158,3.8,4.0,44,0.00,,,0.00,WUHU216HW,2013-06-05 16:13:00,
2013-06-05 12:18:00,77.9,53.0,30.23,SE,135,2.2,3.8,42,0.00,,,0.00,WUHU216HW,2013-06-05 16:18:00,
2013-06-05 12:23:00,78.1,55.0,30.22,SSE,158,2.5,3.4,45,0.00,,,0.00,WUHU216HW,2013-06-05 16:23:00,
2013-06-05 12:33:00,79.0,55.8,30.23,SE,135,1.8,2.5,45,0.00,,,0.00,WUHU216HW,2013-06-05 16:33:00,
2013-06-05 12:43:00,78.1,54.4,30.22,South,180,2.7,2.7,44,0.00,,,0.00,WUHU216HW,2013-06-05 16:43:00,
2013-06-05 12:53:00,77.9,54.2,30.22,SE,135,1.1,3.4,44,0.00,,,0.00,WUHU216HW,2013-06-05 16:53:00,
2013-06-05 13:03:00,76.5,53.6,30.22,SE,135,1.1,3.6,45,0.00,,,0.00,WUHU216HW,2013-06-05 17:03:00,
2013-06-05 13:13:00,75.6,52.8,30.21,South,180,1.1,4.7,45,0.00,,,0.00,WUHU216HW,2013-06-05 17:13:00,
2013-06-05 13:23:00,75.2,52.4,30.21,ENE,68,2.0,4.7,45,0.00,,,0.00,WUHU216HW,2013-06-05 17:23:00,
2013-06-05 13:33:00,75.2,52.4,30.21,SE,135,2.2,2.5,45,0.00,,,0.00,WUHU216HW,2013-06-05 17:33:00,
2013-06-05 13:44:00,75.8,53.5,30.21,SSE,158,0.0,4.0,46,0.00,,,0.00,WUHU216HW,2013-06-05 17:44:00,
2013-06-05 13:54:00,74.9,52.7,30.21,SE,135,0.7,4.5,46,0.00,,,0.00,WUHU216HW,2013-06-05 17:54:00,
2013-06-05 14:04:00,74.7,51.8,30.21,West,270,0.2,2.9,45,0.00,,,0.00,WUHU216HW,2013-06-05 18:04:00,
2013-06-05 14:14:00,74.3,52.1,30.20,South,180,2.5,3.8,46,0.00,,,0.00,WUHU216HW,2013-06-05 18:14:00,
2013-06-05 14:24:00,74.2,50.8,30.20,ESE,113,2.7,4.7,44,0.00,,,0.00,WUHU216HW,2013-06-05 18:24:00,
2013-06-05 14:34:00,73.8,50.4,30.19,SE,135,1.8,2.5,44,0.00,,,0.00,WUHU216HW,2013-06-05 18:34:00,
2013-06-05 14:44:00,73.4,51.3,30.19,SSW,203,0.4,2.0,46,0.00,,,0.00,WUHU216HW,2013-06-05 18:44:00,
2013-06-05 14:54:00,73.1,50.9,30.19,South,180,2.0,3.6,46,0.00,,,0.00,WUHU216HW,2013-06-05 18:54:00,
2013-06-05 15:04:00,72.7,50.6,30.18,SW,225,1.6,5.1,46,0.00,,,0.00,WUHU216HW,2013-06-05 19:04:00,
2013-06-05 15:14:00,72.4,49.7,30.18,SSE,158,2.2,4.0,45,0.00,,,0.00,WUHU216HW,2013-06-05 19:14:00,
2013-06-05 15:24:00,72.5,49.9,30.19,North,0,2.9,2.9,45,0.00,,,0.00,WUHU216HW,2013-06-05 19:24:00,
2013-06-05 15:34:00,72.4,50.3,30.19,SSE,158,0.4,4.0,46,0.00,,,0.00,WUHU216HW,2013-06-05 19:34:00,
2013-06-05 15:44:00,72.5,49.9,30.19,ESE,113,0.4,2.2,45,0.00,,,0.00,WUHU216HW,2013-06-05 19:44:00,
2013-06-05 15:55:00,72.4,50.3,30.19,SSE,158,2.9,4.0,46,0.00,,,0.00,WUHU216HW,2013-06-05 19:55:00,
2013-06-05 16:05:00,72.4,50.3,30.19,South,180,0.7,2.0,46,0.00,,,0.00,WUHU216HW,2013-06-05 20:05:00,
2013-06-05 16:15:00,72.4,50.3,30.19,SSE,158,1.3,3.6,46,0.00,,,0.00,WUHU216HW,2013-06-05 20:15:00,
2013-06-05 16:25:00,72.4,50.3,30.19,SSW,203,1.8,2.9,46,0.00,,,0.00,WUHU216HW,2013-06-05 20:25:00,
2013-06-05 16:35:00,72.5,50.5,30.19,SE,135,1.1,3.6,46,0.00,,,0.00,WUHU216HW,2013-06-05 20:35:00,
2013-06-05 16:45:00,72.4,50.3,30.19,East,90,0.0,3.4,46,0.00,,,0.00,WUHU216HW,2013-06-05 20:45:00,
2013-06-05 16:55:00,72.5,49.9,30.19,ESE,113,0.4,2.0,45,0.00,,,0.00,WUHU216HW,2013-06-05 20:55:00,
2013-06-05 17:05:00,73.1,50.3,30.19,SSE,158,1.6,2.5,45,0.00,,,0.00,WUHU216HW,2013-06-05 21:05:00,
2013-06-05 17:15:00,74.3,52.1,30.19,SSE,158,2.5,2.5,46,0.00,,,0.00,WUHU216HW,2013-06-05 21:15:00,
2013-06-05 17:25:00,75.1,51.0,30.18,SE,135,1.3,2.5,43,0.00,,,0.00,WUHU216HW,2013-06-05 21:25:00,
2013-06-05 17:35:00,74.2,50.8,30.19,SSE,158,1.1,3.4,44,0.00,,,0.00,WUHU216HW,2013-06-05 21:35:00,
2013-06-05 17:45:00,74.0,50.6,30.19,SE,135,2.9,2.9,44,0.00,,,0.00,WUHU216HW,2013-06-05 21:45:00,
2013-06-05 17:55:00,74.0,51.2,30.19,South,180,0.7,2.7,45,0.00,,,0.00,WUHU216HW,2013-06-05 21:55:00,
2013-06-05 18:05:00,74.2,51.4,30.18,South,180,0.4,3.1,45,0.00,,,0.00,WUHU216HW,2013-06-05 22:05:00,
2013-06-05 18:15:00,74.0,50.6,30.18,SE,135,1.3,3.1,44,0.00,,,0.00,WUHU216HW,2013-06-05 22:15:00,
2013-06-05 18:25:00,73.4,50.7,30.17,SSE,158,0.9,2.9,45,0.00,,,0.00,WUHU216HW,2013-06-05 22:25:00,
2013-06-05 18:36:00,72.9,50.2,30.17,SE,135,1.6,2.9,45,0.00,,,0.00,WUHU216HW,2013-06-05 22:36:00,
2013-06-05 18:46:00,72.4,50.3,30.17,South,180,0.4,2.2,46,0.00,,,0.00,WUHU216HW,2013-06-05 22:46:00,
2013-06-05 18:56:00,72.0,50.6,30.17,SSE,158,0.9,2.7,47,0.00,,,0.00,WUHU216HW,2013-06-05 22:56:00,
2013-06-05 19:06:00,71.8,50.4,30.17,SSE,158,2.2,2.2,47,0.00,,,0.00,WUHU216HW,2013-06-05 23:06:00,
2013-06-05 19:16:00,71.6,51.4,30.17,SSE,158,0.9,1.8,49,0.00,,,0.00,WUHU216HW,2013-06-05 23:16:00,
2013-06-05 19:26:00,71.1,50.9,30.17,SSW,203,0.7,1.6,49,0.00,,,0.00,WUHU216HW,2013-06-05 23:26:00,
2013-06-05 19:36:00,70.6,50.5,30.17,SSW,203,0.4,0.9,49,0.00,,,0.00,WUHU216HW,2013-06-05 23:36:00,
2013-06-05 19:46:00,70.2,50.8,30.17,SE,135,0.7,1.3,50,0.00,,,0.00,WUHU216HW,2013-06-05 23:46:00,
2013-06-05 19:56:00,69.5,49.5,30.17,SE,135,0.0,0.4,49,0.00,,,0.00,WUHU216HW,2013-06-05 23:56:00,
2013-06-05 20:07:00,68.6,49.2,30.18,SE,135,0.0,0.4,50,0.00,,,0.00,WUHU216HW,2013-06-06 00:07:00,
2013-06-05 20:17:00,67.7,49.0,30.17,SE,135,0.0,0.4,51,0.00,,,0.00,WUHU216HW,2013-06-06 00:17:00,
2013-06-05 20:27:00,66.6,48.4,30.17,SE,135,0.4,0.9,52,0.00,,,0.00,WUHU216HW,2013-06-06 00:27:00,
2013-06-05 20:37:00,65.7,47.6,30.18,SE,135,0.0,0.4,52,0.00,,,0.00,WUHU216HW,2013-06-06 00:37:00,
2013-06-05 20:47:00,65.0,47.3,30.18,SE,135,0.0,0.4,53,0.00,,,0.00,WUHU216HW,2013-06-06 00:47:00,
2013-06-05 20:57:00,64.3,47.2,30.18,SE,135,0.0,0.4,54,0.00,,,0.00,WUHU216HW,2013-06-06 00:57:00,
2013-06-05 21:07:00,63.5,47.4,30.18,SE,135,0.0,0.2,56,0.00,,,0.00,WUHU216HW,2013-06-06 01:07:00,
2013-06-05 21:17:00,62.8,47.4,30.19,SE,135,0.0,0.0,57,0.00,,,0.00,WUHU216HW,2013-06-06 01:17:00,
2013-06-05 21:27:00,62.1,47.2,30.19,SE,135,0.0,0.0,58,0.00,,,0.00,WUHU216HW,2013-06-06 01:27:00,
2013-06-05 21:37:00,61.7,47.8,30.19,SE,135,0.0,0.0,60,0.00,,,0.00,WUHU216HW,2013-06-06 01:37:00,
2013-06-05 21:47:00,61.4,47.9,30.20,SE,135,0.0,0.0,61,0.00,,,0.00,WUHU216HW,2013-06-06 01:47:00,
2013-06-05 21:57:00,60.8,47.8,30.19,SE,135,0.0,0.0,62,0.00,,,0.00,WUHU216HW,2013-06-06 01:57:00,
2013-06-05 22:07:00,60.3,47.7,30.19,SE,135,0.0,0.0,63,0.00,,,0.00,WUHU216HW,2013-06-06 02:07:00,
2013-06-05 22:17:00,59.8,47.5,30.19,SE,135,0.0,0.0,64,0.00,,,0.00,WUHU216HW,2013-06-06 02:17:00,
2013-06-05 22:27:00,58.9,47.1,30.20,SE,135,0.0,0.0,65,0.00,,,0.00,WUHU216HW,2013-06-06 02:27:00,
2013-06-05 22:37:00,58.5,47.2,30.21,SE,135,0.0,0.0,66,0.00,,,0.00,WUHU216HW,2013-06-06 02:37:00,
2013-06-05 22:47:00,58.1,47.3,30.20,SE,135,0.0,0.0,67,0.00,,,0.00,WUHU216HW,2013-06-06 02:47:00,
2013-06-05 22:57:00,57.8,47.3,30.19,SE,135,0.0,0.0,68,0.00,,,0.00,WUHU216HW,2013-06-06 02:57:00,
2013-06-05 23:07:00,57.2,47.2,30.19,SE,135,0.0,0.0,69,0.00,,,0.00,WUHU216HW,2013-06-06 03:07:00,
2013-06-05 23:18:00,56.9,47.2,30.19,SE,135,0.0,0.0,70,0.00,,,0.00,WUHU216HW,2013-06-06 03:18:00,
2013-06-05 23:28:00,56.5,47.3,30.19,SE,135,0.0,0.0,71,0.00,,,0.00,WUHU216HW,2013-06-06 03:28:00,
2013-06-05 23:38:00,56.3,47.4,30.19,SE,135,0.0,0.0,72,0.00,,,0.00,WUHU216HW,2013-06-06 03:38:00,
2013-06-05 23:48:00,56.0,47.4,30.19,SE,135,0.0,0.0,73,0.00,,,0.00,WUHU216HW,2013-06-06 03:48:00,
2013-06-05 23:58:00,55.3,47.8,30.19,North,0,0.0,0.0,76,0.00,,,0.00,WUHU216HW,2013-06-06 03:58:00,